Location: Risskov
(56.1972°N, 10.2480°E)
Time: 12:27:04
(UTC+00:00)

Cosmos 371 Rocket - Pass Details

Date: 05 July 2020
Orbit: 684 x 698 km, 74.0° (Epoch: 07 August)

Event Time Altitude Azimuth Distance (km) Brightness Sun altitude
Rises 21:59:42 0° 332° (NNW) 3,091 8.8 -9.1°
Reaches altitude 10° 22:02:04 10° 336° (NNW) 2,168 7.5 -9.3°
Maximum altitude 22:06:53 58° 56° (NE) 812 3.8 -9.5°
Drops below altitude 10° 22:11:40 10° 136° (SE) 2,146 5.3 -9.7°
Enters shadow 22:11:46 10° 136° (SE) 2,185 5.3 -9.7°
